This demonstration page uses our WeatherBlox Daily Observations layout. Learn more.

Left ArrowRight Arrow

41.86663, -103.66717

Hourly Observations for July 5, 2018

Temp ( °F °C ) Dew Point ( °F °C ) Humidity (%) Winds ( mph kmh ) Pressure ( in mb ) Visibility ( mi km ) Precip ( " mm )
12:53 am 00:53 Mostly Cloudy 69 20.6 65 18.3 87 87 ESE 9 15 30.24 1024 10 16 N/A
1:51 am 01:51 Cloudy 70 21 64 18 83 83 E 7 11 30.18 1022 10 16 N/A
1:53 am 01:53 Cloudy 69 20.6 65 18.3 87 87 E 8 13 30.25 1024 10 16 N/A
2:53 am 02:53 Cloudy 69 20.6 66 18.9 90 90 E 5 7 30.28 1025 10 16 N/A
3:33 am 03:33 Cloudy 69 20.6 67 19.4 93 93 E 6 9 30.21 1023 10 16 N/A
3:53 am 03:53 Partly Cloudy 68 20 67 19.4 96 96 ENE 9 15 30.27 1025 10 16 N/A
4:34 am 04:34 Mostly Cloudy 68 20 66 19 94 94 E 7 11 30.21 1023 10 16 N/A
4:53 am 04:53 Cloudy 69 20.6 68 20 96 96 undefined N/A 30.29 1026 10 16 N/A
5:00 am 05:00 Cloudy 70 21 68 20 94 94 undefined N/A 30.21 1023 10 16 N/A
5:53 am 05:53 Cloudy 69 20.6 67 19.4 93 93 E 9 15 30.30 1026 10 16 N/A
6:53 am 06:53 Cloudy 69 20.6 65 18.3 87 87 E 14 22 30.32 1027 10 16 N/A
7:15 am 07:15 Cloudy 69 20.6 66 18.9 90 90 E 13 20 30.24 1024 10 16 N/A
7:53 am 07:53 Cloudy 69 20.6 66 18.9 90 90 ESE 13 20 30.34 1027 10 16 N/A
8:38 am 08:38 Cloudy 72 22 66 19 83 83 ESE 17 28 30.27 1025 9 14 N/A
8:53 am 08:53 Cloudy 71 21.7 67 19.4 87 87 ESE 18 30 30.35 1028 9 14 N/A
9:03 am 09:03 Cloudy 71 21.7 67 19.4 87 87 ESE 20 31 30.27 1025 9 14 N/A
9:16 am 09:16 Cloudy 72 22 66 19 83 83 ESE 18 30 30.27 1025 9 14 N/A
9:25 am 09:25 Cloudy 73 22.8 68 20 84 84 ESE 17 28 30.24 1024 10 16 N/A
9:39 am 09:39 Cloudy 71 21.7 67 19.4 87 87 SE 16 26 30.27 1025 10 16 N/A
9:53 am 09:53 Cloudy 71 21.7 67 19.4 87 87 SE 15 24 30.36 1028 10 16 N/A
10:15 am 10:15 Cloudy 72 22.2 67 19.4 84 84 SE 15 24 30.30 1026 10 16 N/A
10:53 am 10:53 Cloudy 72 22.2 67 19.4 84 84 SE 14 22 30.36 1028 10 16 N/A
11:53 am 11:53 Mostly Cloudy 76 24.4 67 19.4 74 74 SSE 13 20 30.35 1028 10 16 N/A
12:53 pm 12:53 Partly Cloudy 80 26.7 68 20 67 67 ESE 13 20 30.33 1027 10 16 N/A
1:53 pm 13:53 Sunny 82 27.8 67 19.4 60 60 SE 8 13 30.30 1026 10 16 N/A
2:53 pm 14:53 Sunny 85 29.4 68 20 57 57 ESE 20 31 30.29 1026 10 16 N/A
3:53 pm 15:53 Sunny 85 29.4 67 19.4 55 55 ESE 17 28 30.27 1025 10 16 N/A
4:53 pm 16:53 Sunny 86 30 66 18.9 51 51 SE 18 30 30.26 1025 10 16 N/A
5:53 pm 17:53 Sunny 86 30 66 18.9 51 51 SE 14 22 30.24 1024 10 16 N/A
6:53 pm 18:53 Sunny 84 28.9 66 18.9 55 55 SE 15 24 30.24 1024 10 16 N/A
7:53 pm 19:53 Sunny 81 27.2 65 18.3 58 58 SE 12 19 30.25 1025 10 16 N/A
8:53 pm 20:53 Clear 78 25.6 66 18.9 67 67 ESE 13 20 30.28 1025 10 16 N/A
9:53 pm 21:53 Clear 75 23.9 65 18.3 71 71 ESE 16 26 30.32 1027 10 16 N/A
10:53 pm 22:53 Clear 73 22.8 66 18.9 79 79 SE 14 22 30.33 1027 10 16 N/A
11:53 pm 23:53 Clear 72 22.2 65 18.3 79 79 SE 13 20 30.32 1027 10 16 N/A

Powered by AerisWeather